Current weather by "City, St" or "zip code"  
 
Advertise Here

Current Conditions: Orlando Executive Airport, FL

Fair


73.0 F

Last Updated on Jan 20 2021, 1:53 pm EST
Humidity: 37%
Wind Speed: 5.8 mph
Barometer 30.22 in
Dewpoint: 45.0 F
Visibility: 10.00 mi
Precip: --
Heat Index: NA
Wind Chill: NA
Current conditions at:

Orlando Executive Airport, FL (KORL)

Lat: 28.54655 Lon: 81.33543

Local Radar Image active severe weather and emergency alerts image image weather storm and storm spotter reports image weather observation monitoring service image
Local
Radar
Active
Alerts
Storm Reports Obs
Monitoring

Sign-up For Email & Text Message Weather Alert Notification Services


Advertise Here

Observation History for Orlando Executive Airport, FL


Time Wind
(mph)
Vis
(mi)
Weather Precip (in) Temperature (F) Relative
Humidity
Wind
Chill
(F)
Heat
Index
(F)
Pressure
Air Dwpt altimeter
(in)
sea level
(mb)
Rmks
1:53 pm EST 5.8 10.00 Fair -- 73.0 45.0 37% NA NA 30.22 1023.7
12:53 pm EST 4.6 10.00 Fair -- 71.0 45.0 39% NA NA 30.26 1025.1
11:53 am EST 4.6 10.00 Fair -- 70.0 45.0 41% NA NA 30.31 1026.7
10:53 am EST N 6.9 10.00 Fair -- 67.0 48.0 51% NA NA 30.34 1027.9
9:53 am EST N 5.8 10.00 Fair -- 65.0 48.9 56% NA NA 30.36 1028.4
8:53 am EST N 0.0 10.00 Fair -- 58.0 51.1 78% NA NA 30.32 1027.2
7:53 am EST N 0.0 10.00 Fair -- 50.0 46.9 89% NA NA 30.31 1026.8
6:53 am EST N 0.0 10.00 Fair -- 50.0 46.0 86% NA NA 30.29 1026.2
5:53 am EST N 0.0 10.00 Fair -- 49.0 46.0 90% NA NA 30.28 1025.8
4:53 am EST NW 3.5 10.00 Fair -- 50.0 46.0 86% NA NA 30.29 1026.1
3:53 am EST N 0.0 10.00 Fair -- 50.0 46.0 86% NA NA 30.29 1026.0
2:53 am EST N 0.0 10.00 Fair -- 52.0 46.9 83% NA NA 30.31 1026.7
1:53 am EST N 3.5 10.00 Fair -- 54.0 48.0 80% NA NA 30.33 1027.4
12:53 am EST N 3.5 10.00 Fair -- 54.0 46.9 77% NA NA 30.33 1027.3
11:53 pm EST N 4.6 10.00 Fair -- 55.0 46.9 74% 54 NA 30.33 1027.5
10:53 pm EST N 0.0 10.00 Fair -- 52.0 45.0 77% NA NA 30.34 1027.7
9:53 pm EST N 3.5 10.00 Fair -- 55.0 45.0 69% NA NA 30.35 1028.1
8:53 pm EST N 0.0 10.00 Fair -- 57.0 45.0 64% NA NA 30.35 1028.3
7:53 pm EST NE 5.8 10.00 Fair -- 59.0 45.0 60% 58 NA 30.35 1028.2
6:53 pm EST E 6.9 10.00 Fair -- 59.0 44.1 58% 58 NA 30.34 1027.9
5:53 pm EST NE 6.9 10.00 Fair -- 66.0 42.1 42% NA NA 30.34 1027.8
4:53 pm EST N 0.0 10.00 Fair -- 71.0 37.9 30% NA NA 30.31 1026.9
3:53 pm EST 4.6 10.00 Fair -- 71.0 39.0 31% NA NA 30.30 1026.6
2:53 pm EST 10.00 Fair -- 71.0 37.9 30% NA NA 30.30 1026.5

Regional Weather Observation


Orlando / Sanford Airport, FL (KSFB)

Fair
72.0 F

The Villages, FL (KVVG)

NULL
73.0 F

Orlando Executive Airport, FL (KORL)

Fair
73.0 F

Orlando International Airport, FL (KMCO)

Mostly Cloudy
72.0 F

Kissimmee Gateway Airport, FL (KISM)

Fair
72.0 F

DeLand Municipal Airport, FL (KDED)

Fair
70.0 F